Regional Weather Roundup
Issued by NWS

Home | Current Version | Previous Version | Graphics & Text | Print | Product List | Glossary On
Versions: 1 2 3 4 5 6 7 8 9 10 11 12 13 14 15 16 17 18 19 20 21 22 23 24 25 26 27 28 29 30 31 32 33 34 35 36 37 38 39 40 41 42 43 44 45 46 47 48 49 50
000
ASUS43 KTOP 211308
RWRKS

WEATHER ROUNDUP FOR KANSAS
NATIONAL WEATHER SERVICE GOODLAND KS
800 AM CDT FRI JUL 21 2017

NOTE:  "FAIR" INDICATES FEW OR NO CLOUDS BELOW 12,000 FEET WITH NO
SIGNIFICANT WEATHER AND/OR OBSTRUCTIONS TO VISIBILITY.

KSZ001>006-013>018-027>032-041>047-211400-
NORTHWEST KANSAS

CITY           SKY/WX    TMP DP  RH WIND       PRES   REMARKS
GOODLAND       SUNNY     73  60  63 W6        29.97R
HAYS           SUNNY     80  64  58 S8        29.91S
HILL CITY      SUNNY     80  60  50 W6        29.92R
RUSSELL        SUNNY     80  65  59 S18       29.89S
$$

KSZ061>065-074>080-084>089-211400-
SOUTHWEST KANSAS

CITY           SKY/WX    TMP DP  RH WIND       PRES   REMARKS
DODGE CITY     SUNNY     78  62  57 S10       29.97R
ELKHART          N/A     73  48  41 SW9         N/A
GARDEN CITY    SUNNY     74  58  57 S10       29.96S
LIBERAL        SUNNY     74  59  59 S13       30.00R
PRATT          SUNNY     77  63  61 S13       29.96S
$$

KSZ066>073-081>083-090>101-211400-
SOUTHEAST KANSAS

CITY           SKY/WX    TMP DP  RH WIND       PRES   REMARKS
CHANUTE        SUNNY     82  73  74 MISG      29.99S
COFFEYVILLE    SUNNY     80  74  81 S8        30.00R
HUTCHINSON     SUNNY     83  66  56 S13       29.95R
MEDICINE LODGE   N/A     79  65  62 SE6       29.96R
NEWTON         SUNNY     83  68  60 S16       29.97R
PARSONS        SUNNY     80  73  79 S6        30.01R
WICHITA INTL   MOSUNNY   80  70  71 S13       29.96R
WICHITA JABRA  SUNNY     81  69  67 S10       29.97R
WICHITA MCCONL SUNNY     80  68  66 SW13      29.97R
WINFIELD       MOSUNNY   80  70  71 S9        29.99R
$$

KSZ007>012-019>026-033>040-048>060-102>105-211400-
NORTHEAST KANSAS

CITY           SKY/WX    TMP DP  RH WIND       PRES   REMARKS
CONCORDIA      SUNNY     82  67  60 S16       29.89S
EMPORIA        SUNNY     79  71  76 S13       29.96R
LAWRENCE       SUNNY     82  74  76 SE9       29.95R
MANHATTAN      SUNNY     84  70  62 SW13      29.90F
MARYSVILLE     SUNNY     82  70  65 SW10G16   29.89S
OLATHE IND     SUNNY     82  72  71 S14       29.97S
OLATHE EXE     SUNNY     79  74  84 S6        29.97S
SALINA         SUNNY     85  66  53 S15       29.91R
TOPEKA BILLARD SUNNY     82  74  76 S5        29.93S
TOPEKA FORBES  SUNNY     82  74  76 S9        29.95R
$$




USA.gov is the U.S. government's official web portal to all federal, state and local government web resources and services.